Location: Domont
(49.0278°N, 2.3264°E)
Time: 11:43:30
(UTC+00:00)

DX 1 - Pass Details

Date: 26 June 2022
Orbit: 617 x 629 km, 98.4° (Epoch: 10 August)

Event Time Altitude Azimuth Distance (km) Brightness Sun altitude
Rises 21:03:34 0° 15° (NNE) 2,934 ? -8.3°
Reaches altitude 10° 21:05:47 10° 17° (NNE) 2,021 ? -8.5°
Maximum altitude 21:10:11 76° 104° (ESE) 654 ? -9.0°
Drops below altitude 10° 21:14:33 10° 190° (S) 2,001 ? -9.4°
Enters shadow 21:16:20 - 192° (SSW) 2,736 ? -9.6°
